Weather History for Council Bluffs, IA

Change the Weather History Date:

Thursday, February 14, 2013

  Actual Average Record
Temperature  
Mean Temperature 32 °F -  
Max Temperature 42 °F 37 °F 66 °F (2006)
Min Temperature 23 °F 22 °F -4 °F (2007)
Degree Days  
Heating Degree Days 32    
Moisture  
Dew Point 27 °F    
Average Humidity 70    
Maximum Humidity 100    
Minimum Humidity 42    
Precipitation  
Precipitation 0.00 in - - ()
Sea Level Pressure  
Sea Level Pressure 29.98 in    
Wind  
Wind Speed 14 mph (NW)    
Max Wind Speed 23 mph    
Max Gust Speed 31 mph    
Visibility 9 miles    
Events Rain , Snow    
Averages and records for this station are not official NWS values.
T = Trace of Precipitation, MM = Missing Value Source: NWS Daily Summary

Daily Weather History Graph

Daily Weather History Graph

Search for Another Location

Airport:

Trip Planner

Search our weather history database for the weather conditions in past years. The results will help you decide how hot, cold, wet, or windy it might be!

Date:

Astronomy

Feb. 14, 2013 Rise Set
Actual Time 7:18 AM CST 5:56 PM CST
Civil Twilight 6:50 AM CST 6:24 PM CST
Nautical Twilight 6:18 AM CST 6:56 PM CST
Astronomical Twilight 5:46 AM CST 7:28 PM CST
Moon 9:17 AM CST (2/14) 11:03 PM CST (2/14)
Length of Visible Light 11h 34m
Length of Day
10h 37m
Waxing Crescent, 22% of the Moon is Illuminated
Feb 14
Waxing Crescent
Feb 17
First Quarter
Feb 25
Full
Mar 4
Last Quarter
Mar 11
New

Hourly Weather History & Observations

Time (CST) Temp. Windchill Dew Point Humidity Pressure Visibility Wind Dir Wind Speed Gust Speed Precip Events Conditions
12:15 AM 42.8 °F 36.6 °F 28.4 °F 57% 29.77 in 10.0 mi WNW 11.5 mph - N/A   Overcast
12:35 AM 41.0 °F 33.9 °F 30.2 °F 65% 29.77 in 10.0 mi WNW 12.7 mph - N/A   Overcast
12:55 AM 41.0 °F 34.3 °F 30.2 °F 65% 29.78 in 10.0 mi WNW 11.5 mph 18.4 mph N/A   Scattered Clouds
1:15 AM 41.0 °F 33.5 °F 30.2 °F 65% 29.78 in 10.0 mi WNW 13.8 mph 20.7 mph N/A   Clear
1:35 AM 41.0 °F 33.5 °F 30.2 °F 65% 29.79 in 10.0 mi WNW 13.8 mph - N/A   Clear
1:55 AM 41.0 °F 32.8 °F 30.2 °F 65% 29.79 in 10.0 mi WNW 16.1 mph - N/A   Clear
2:15 AM 39.2 °F 31.2 °F 30.2 °F 70% 29.80 in 10.0 mi WNW 13.8 mph - N/A   Clear
2:35 AM 39.2 °F 30.2 °F 30.2 °F 70% 29.80 in 10.0 mi WNW 17.3 mph 24.2 mph N/A   Clear
2:55 AM 39.2 °F 29.3 °F 30.2 °F 70% 29.81 in 10.0 mi WNW 20.7 mph 26.5 mph N/A   Partly Cloudy
3:15 AM 39.2 °F 29.6 °F 30.2 °F 70% 29.82 in 10.0 mi NW 19.6 mph 27.6 mph N/A   Partly Cloudy
3:35 AM 39.2 °F 29.3 °F 30.2 °F 70% 29.82 in 10.0 mi NW 20.7 mph 29.9 mph N/A   Partly Cloudy
3:55 AM 39.2 °F 29.8 °F 30.2 °F 70% 29.82 in 10.0 mi NW 18.4 mph - N/A   Partly Cloudy
4:15 AM 37.4 °F 28.5 °F 30.2 °F 75% 29.83 in 10.0 mi NW 15.0 mph 21.9 mph N/A   Clear
4:35 AM 37.4 °F 28.5 °F 30.2 °F 75% 29.83 in 10.0 mi NW 15.0 mph 23.0 mph N/A   Clear
4:55 AM 37.4 °F 28.9 °F 30.2 °F 75% 29.85 in 10.0 mi NW 13.8 mph 21.9 mph N/A   Partly Cloudy
5:15 AM 37.4 °F 28.2 °F 30.2 °F 75% 29.85 in 10.0 mi NNW 16.1 mph 23.0 mph N/A   Scattered Clouds
5:35 AM 35.6 °F 26.6 °F 30.2 °F 81% 29.87 in 10.0 mi NW 13.8 mph 29.9 mph N/A   Partly Cloudy
5:55 AM 35.6 °F 27.1 °F 30.2 °F 81% 29.87 in 10.0 mi NW 12.7 mph 20.7 mph N/A   Clear
6:15 AM 33.8 °F 25.3 °F 30.2 °F 87% 29.88 in 10.0 mi NW 11.5 mph 19.6 mph N/A   Clear
6:35 AM 33.8 °F 26.4 °F 30.2 °F 87% 29.89 in 10.0 mi NW 9.2 mph - N/A   Partly Cloudy
6:55 AM 33.8 °F 27.0 °F 28.4 °F 81% 29.92 in 10.0 mi NW 8.1 mph - N/A   Partly Cloudy
7:15 AM 33.8 °F 27.0 °F 28.4 °F 81% 29.93 in 10.0 mi NW 8.1 mph 15.0 mph N/A   Mostly Cloudy
7:35 AM 32.0 °F 26.4 °F 28.4 °F 87% 29.93 in 10.0 mi WNW 5.8 mph - N/A   Scattered Clouds
7:55 AM 33.8 °F 29.6 °F 30.2 °F 87% 29.94 in 10.0 mi NW 4.6 mph - N/A   Scattered Clouds
8:15 AM 33.8 °F 28.6 °F 30.2 °F 87% 29.94 in 10.0 mi NNW 5.8 mph - N/A   Partly Cloudy
8:35 AM 33.8 °F 27.7 °F 30.2 °F 87% 29.94 in 10.0 mi NNW 6.9 mph - N/A   Clear
8:55 AM 35.6 °F 31.7 °F 30.2 °F 81% 29.94 in 10.0 mi NW 4.6 mph - N/A   Clear
9:15 AM 35.6 °F 29.2 °F 30.2 °F 81% 29.95 in 10.0 mi WNW 8.1 mph - N/A   Clear
9:35 AM 37.4 °F 30.3 °F 30.2 °F 75% 29.95 in 10.0 mi WNW 10.4 mph - N/A   Scattered Clouds
9:55 AM 37.4 °F 32.1 °F 30.2 °F 75% 29.96 in 10.0 mi WNW 6.9 mph - N/A   Overcast
10:15 AM 37.4 °F 30.3 °F 30.2 °F 75% 29.96 in 10.0 mi WNW 10.4 mph - N/A   Overcast
10:35 AM 39.2 °F 30.8 °F 30.2 °F 70% 29.97 in 10.0 mi NW 15.0 mph - N/A   Overcast
10:55 AM 41.0 °F 33.5 °F 30.2 °F 65% 29.97 in 10.0 mi WNW 13.8 mph - N/A   Mostly Cloudy
11:15 AM 41.0 °F 31.9 °F 28.4 °F 61% 29.96 in 10.0 mi NW 19.6 mph 31.1 mph N/A   Scattered Clouds
11:35 AM 41.0 °F 32.5 °F 28.4 °F 61% 29.97 in 10.0 mi NW 17.3 mph 23.0 mph N/A   Clear
11:55 AM 41.0 °F 31.9 °F 26.6 °F 57% 29.97 in 10.0 mi NW 19.6 mph 31.1 mph N/A   Partly Cloudy
12:15 PM 41.0 °F 32.8 °F 26.6 °F 57% 29.98 in 10.0 mi NNW 16.1 mph 27.6 mph N/A   Mostly Cloudy
12:35 PM 42.8 °F 34.8 °F 26.6 °F 53% 29.97 in 10.0 mi North 17.3 mph - N/A   Mostly Cloudy
12:55 PM 42.8 °F 36.2 °F 26.6 °F 53% 29.98 in 10.0 mi NW 12.7 mph 19.6 mph N/A   Overcast
1:15 PM 42.8 °F 34.5 °F 24.8 °F 49% 29.98 in 10.0 mi NW 18.4 mph 24.2 mph N/A   Mostly Cloudy
1:35 PM 42.8 °F 34.8 °F 23.0 °F 46% 29.99 in 10.0 mi NNW 17.3 mph 24.2 mph N/A   Mostly Cloudy
1:55 PM 41.0 °F 32.8 °F 21.2 °F 45% 29.99 in 10.0 mi NNW 16.1 mph 27.6 mph N/A   Overcast
2:15 PM 42.8 °F 33.8 °F 21.2 °F 42% 29.99 in 10.0 mi NW 21.9 mph - N/A   Overcast
2:35 PM 42.8 °F 34.8 °F 23.0 °F 46% 30.00 in 10.0 mi WNW 17.3 mph 23.0 mph N/A   Overcast
2:55 PM 41.0 °F 32.2 °F 23.0 °F 49% 30.01 in 10.0 mi NNW 18.4 mph 26.5 mph N/A   Overcast
3:15 PM 41.0 °F - 21.2 °F 45% 30.01 in 10.0 mi North - - N/A   Overcast
3:35 PM 41.0 °F 34.3 °F 23.0 °F 49% 30.02 in 10.0 mi NW 11.5 mph 23.0 mph N/A   Overcast
3:55 PM 41.0 °F 33.5 °F 23.0 °F 49% 30.03 in 10.0 mi NW 13.8 mph 23.0 mph N/A   Overcast
4:15 PM 41.0 °F 34.3 °F 23.0 °F 49% 30.03 in 10.0 mi NW 11.5 mph 19.6 mph N/A   Overcast
4:35 PM 39.2 °F 32.0 °F 24.8 °F 56% 30.04 in 10.0 mi NW 11.5 mph 19.6 mph N/A   Mostly Cloudy
4:55 PM 39.2 °F 29.3 °F 26.6 °F 61% 30.05 in 7.0 mi NW 20.7 mph 27.6 mph N/A   Mostly Cloudy
5:15 PM 35.6 °F 25.5 °F 30.2 °F 81% 30.06 in 8.0 mi NW 17.3 mph - N/A Rain Light Rain
5:35 PM 33.8 °F 26.4 °F 32.0 °F 93% 30.06 in 1.8 mi NNW 9.2 mph 17.3 mph N/A Snow Light Snow
5:55 PM 33.8 °F 25.8 °F 30.2 °F 87% 30.07 in 10.0 mi WNW 10.4 mph - N/A   Overcast
6:15 PM 35.6 °F 27.1 °F 30.2 °F 81% 30.08 in 10.0 mi NW 12.7 mph 21.9 mph N/A   Overcast
6:35 PM 33.8 °F 25.8 °F 30.2 °F 87% 30.09 in 9.0 mi NW 10.4 mph - N/A Rain Light Rain
6:55 PM 33.8 °F 28.6 °F 32.0 °F 93% 30.09 in 1.0 mi NW 5.8 mph 12.7 mph N/A Snow Light Snow
7:15 PM 32.0 °F 24.2 °F 32.0 °F 100% 30.10 in 2.5 mi NNW 9.2 mph - N/A Snow Light Snow
7:35 PM 32.0 °F 23.6 °F 32.0 °F 100% 30.10 in 3.0 mi NNW 10.4 mph - N/A Snow Light Snow
7:55 PM 32.0 °F 22.1 °F 32.0 °F 100% 30.11 in 2.5 mi North 13.8 mph 19.6 mph N/A Snow Light Snow
8:15 PM 32.0 °F 22.1 °F 30.2 °F 93% 30.13 in 1.0 mi North 13.8 mph 20.7 mph N/A Snow Light Snow
8:35 PM 30.2 °F 18.9 °F 26.6 °F 86% 30.14 in 2.0 mi North 16.1 mph 28.8 mph N/A Snow Light Snow
8:55 PM 30.2 °F 18.5 °F 24.8 °F 80% 30.15 in 10.0 mi NNW 17.3 mph 26.5 mph N/A   Mostly Cloudy
9:15 PM 28.4 °F 15.8 °F 19.4 °F 69% 30.17 in 10.0 mi North 18.4 mph 25.3 mph N/A   Mostly Cloudy
9:35 PM 28.4 °F 16.2 °F 14.0 °F 55% 30.18 in 9.0 mi North 17.3 mph 26.5 mph N/A   Overcast
9:55 PM 26.6 °F 13.8 °F 14.0 °F 59% 30.19 in 10.0 mi North 17.3 mph 25.3 mph N/A   Overcast
10:15 PM 26.6 °F 15.2 °F 15.8 °F 64% 30.20 in 10.0 mi NNW 13.8 mph - N/A   Overcast
10:35 PM 24.8 °F 12.9 °F 15.8 °F 69% 30.22 in 10.0 mi NNW 13.8 mph 19.6 mph N/A   Overcast
10:55 PM 24.8 °F 11.9 °F 12.2 °F 59% 30.22 in 10.0 mi NNW 16.1 mph 21.9 mph N/A   Overcast
11:15 PM 23.0 °F 7.2 °F 12.2 °F 63% 30.22 in 10.0 mi NNW 23.0 mph 29.9 mph N/A   Mostly Cloudy
11:35 PM 23.0 °F 8.3 °F 12.2 °F 63% 30.23 in 9.0 mi NNW 19.6 mph 26.5 mph N/A   Overcast
11:55 PM 23.0 °F 10.1 °F 12.2 °F 63% 30.24 in 10.0 mi NW 15.0 mph - N/A   Overcast